[[{"header":{"parameterUnit":"m.s-1","parameterCategory":1,"la1":30.2991,"la2":30.254,"lo1":-89.0895,"lo2":-89.0444,"dy":0.0017,"dx":0.0017,"nx":28,"ny":28,"refTime":"2025-11-23T09:00:00:Z","depth":0,"parameterNumber":2,"parameterNumberName":"U-component_of_WINDS"},"data":[0,0,0,0,0,0,0,0,0,0,0,0,0,0,0,0,0,0,0,0,0,0,0,0,0,0,0,0,0,0,0,0,0,0,0,0,0,0,0,0,0,0,0,0,0,0,0,0,0,0,0,0,0,0,0,0,0,0,0.8945,0.8946,0,0.9033,0.9034,0.9035,0.9037,0.9036,0.9034,0.9033,0.9127,0.9131,0.9134,0,0,0,0,0,0,0,0,0,0,0,0,0,0.8781,0.8784,0.8945,0.8946,0.8947,0.9033,0.9034,0.9035,0.9037,0.9036,0.9034,0.9033,0.9126,0.913,0.9135,0,0,0,0,0,0,0,0,0,0,0,0,0,0.8859,0.8785,0.8945,0.8958,0.896,0.9033,0.9034,0.9036,0.9037,0.9036,0.9034,0.9032,0.9125,0.913,0.9135,0.9201,0,0,0.9151,0.9154,0,0,0,0,0,0,0,0,0.8854,0.8865,0.8955,0.8957,0.896,0.9022,0.9011,0.9091,0.9038,0.9008,0.9033,0.9031,0.9094,0.9102,0.9122,0.9206,0.921,0.9152,0.9155,0.9157,0.9159,0,0,0,0,0,0,0,0.8849,0.8861,0.898,0.8956,0.8959,0.8961,0.897,0.9026,0.9059,0.9011,0.9011,0.9021,0.9095,0.9117,0.9124,0.9211,0.9152,0.9156,0.916,0.9162,0.9354,0.9356,0,0,0,0,0,0,0.884,0.8857,0.8977,0.8982,0.8902,0.8965,0.8975,0.9004,0.9059,0.9065,0.9022,0.9021,0.9109,0.9118,0.9127,0.9209,0.9157,0.9162,0.9165,0.9352,0.9354,0.9357,0,0,0,0,0,0,0.8837,0.8851,0.8973,0.892,0.8935,0.897,0.9002,0.9006,0.9028,0.9068,0.9074,0.9038,0.9108,0.912,0.9183,0.9212,0.9165,0.9169,0.935,0.9353,0.9355,0.9372,0,0,0,0,0,0,0.8832,0.885,0.8875,0.892,0.8938,0.9026,0.9003,0.9009,0.9037,0.9036,0.9084,0.9091,0.9107,0.9175,0.9188,0.9219,0.9174,0.9347,0.9351,0.9355,0.9369,0.9375,0.9381,0,0,0,0,0,0.8826,0.8877,0.8876,0.8891,0.897,0.9028,0.9039,0.9055,0.9039,0.9065,0.909,0.9089,0.9207,0.9181,0.9196,0.9229,0.9346,0.935,0.9354,0.9367,0.9374,0.9381,0,0,0,0,0,0,0.8835,0.8883,0.8883,0.8949,0.8984,0.9028,0.9061,0.9063,0.9104,0.9102,0.9122,0.9133,0.9195,0.9218,0.9189,0.9296,0.9274,0.9282,0.9279,0.9286,0.9292,0.9286,0.9178,0,0,0,0,0,0.8845,0.8887,0.8927,0.8981,0.8999,0.9027,0.9053,0.9063,0.9101,0.9116,0.9146,0.9184,0.9229,0.9259,0.9303,0.9372,0.9383,0.9402,0.9408,0.9412,0.9419,0.9458,0.9467,0.9371,0.9371,0.9371,0,0,0.8865,0.8896,0.8922,0.8984,0.9013,0.9057,0.904,0.9088,0.9121,0.9124,0.9185,0.9208,0.9251,0.9318,0.9349,0.9339,0.9448,0.9418,0.9421,0.9425,0.9464,0.9473,0.9481,0.9374,0.9373,0.9373,0,0,0.8925,0.8953,0.9001,0.903,0.9073,0.9091,0.9103,0.9146,0.9161,0.9222,0.9226,0.9266,0.9344,0.9375,0.9401,0.9472,0.9473,0.9485,0.9516,0.9554,0.9561,0.9568,0.9594,0.9604,0.9492,0.9492,0.9492,0,0.8946,0.9012,0.9027,0.9074,0.9102,0.9105,0.9155,0.9182,0.9238,0.9257,0.9245,0.9342,0.9372,0.9446,0.9463,0.9484,0.9499,0.9481,0.9559,0.9566,0.9572,0.9598,0.9608,0.9493,0.9493,0.9493,0.9493,0,0.9035,0.9081,0.9115,0.9167,0.9199,0.9248,0.9271,0.9301,0.9307,0.9327,0.939,0.9425,0.9476,0.9494,0.9502,0.957,0.9562,0.9554,0.9533,0.9583,0.9607,0.9617,0.9495,0.9495,0.9494,0.9494,0,0,0.9105,0.9164,0.9176,0.92,0.9247,0.9283,0.9332,0.9381,0.9407,0.9445,0.9487,0.9552,0.9545,0.9575,0.9586,0.9619,0.9674,0.9607,0.9608,0.9619,0.9752,0.9758,0.9769,0.9674,0.9676,0.9677,0.9748,0,0.9171,0.9257,0.9271,0.9347,0.939,0.9393,0.9436,0.947,0.949,0.953,0.9552,0.9598,0.9584,0.9602,0.9635,0.966,0.9701,0.9655,0.9715,0.9717,0.9705,0.9782,0.9789,0.9855,0.9758,0.976,0.9761,0,0.926,0.9299,0.9379,0.942,0.9438,0.9476,0.9522,0.956,0.9599,0.9611,0.9643,0.965,0.9702,0.9678,0.975,0.9719,0.9744,0.976,0.9763,0.9771,0.9743,0.9793,0.9876,0.9886,0.9776,0.9774,0.9773,0,0.9304,0.9376,0.9433,0.9454,0.9503,0.953,0.9552,0.9589,0.9617,0.9657,0.9676,0.9723,0.9748,0.9784,0.9804,0.9784,0.9876,0.9853,0.9889,0.9888,0.9909,0.9908,0.9999,0.9923,0.9923,0.9923,0.9922,0,0.9377,0.9426,0.9454,0.9489,0.9544,0.9561,0.9615,0.9637,0.967,0.971,0.9715,0.9753,0.9776,0.9818,0.9834,0.9892,0.9903,0.9916,0.9919,0.9916,0.9915,0.9934,0.993,0.9925,0.9925,0.9924,0.9924,0,0.9436,0.9457,0.9519,0.956,0.9572,0.9611,0.9646,0.9681,0.97,0.9751,0.9764,0.9794,0.9843,0.9866,0.9927,0.9938,1.0005,1.0005,0.9991,0.9993,1.0028,1.0025,1.0136,1.0152,1.0064,1.0065,1.0065,0,0.9482,0.952,0.9564,0.9591,0.9613,0.9656,0.9685,0.9702,0.9732,0.9779,0.9809,0.9858,0.9898,0.9977,1.0005,1.0052,1.0054,1.009,1.0061,1.0057,1.0056,1.0054,1.0059,1.0095,1.0096,1.0097,1.0097,0,0.9562,0.957,0.961,0.9654,0.9688,0.9724,0.9759,0.9781,0.9804,0.9837,0.9887,0.9918,0.998,1.0029,1.0078,1.0102,1.0104,1.0106,1.0117,1.0114,1.0106,1.0112,1.0007,1.0104,1.0103,1.0103,1.0102,1.0102,0.9617,0.9651,0.9687,0.9732,0.976,0.9792,0.9827,0.985,0.9891,0.9942,0.995,1.0003,1.0041,1.0106,1.0132,1.0175,1.0166,1.0182,1.0186,1.019,1.0193,1.0097,1.0183,1.0183,1.0183,1.0183,1.0183,0,0.9698,0.9721,0.9762,0.9811,0.9846,0.9843,0.9882,0.9912,0.9958,0.9993,1.0032,1.0089,1.0137,1.0168,1.0217,1.0245,1.0247,1.0257,1.0256,1.0262,1.0197,1.0183,1.0254,1.0254,1.0254,1.0254,1.0254,1.0254,0.9745,0.9802,0.9814,0.9885,0.9908,0.9959,0.9982,1.0012,1.004,1.0103,1.0142,1.0161,1.0195,1.0246,1.029,1.0298,1.0316,1.0326,1.0334,1.0274,1.0266,1.0259,1.0246,1.033,1.033,1.0396,1.0396,1.0397]},{"header":{"parameterUnit":"m.s-1","parameterCategory":1,"la1":30.2991,"la2":30.254,"lo1":-89.0895,"lo2":-89.0444,"dy":0.0017,"dx":0.0017,"nx":28,"ny":28,"refTime":"2025-11-23T09:00:00:Z","depth":0,"parameterNumber":3,"parameterNumberName":"V-component_of_WINDS"},"data":[0,0,0,0,0,0,0,0,0,0,0,0,0,0,0,0,0,0,0,0,0,0,0,0,0,0,0,0,0,0,0,0,0,0,0,0,0,0,0,0,0,0,0,0,0,0,0,0,0,0,0,0,0,0,0,0,0,0,0.078,0.0782,0,0.0951,0.0953,0.0955,0.0995,0.0994,0.0993,0.0991,0.1166,0.1172,0.1178,0,0,0,0,0,0,0,0,0,0,0,0,0,0.049,0.0495,0.078,0.0782,0.0784,0.095,0.0953,0.0955,0.0995,0.0994,0.0992,0.0991,0.1164,0.1171,0.1178,0,0,0,0,0,0,0,0,0,0,0,0,0,0.0634,0.0497,0.078,0.0824,0.083,0.095,0.0953,0.0956,0.0995,0.0994,0.0992,0.099,0.1162,0.1171,0.1179,0.1267,0,0,0.1205,0.1209,0,0,0,0,0,0,0,0,0.0625,0.0644,0.0816,0.0821,0.0828,0.095,0.0915,0.106,0.0996,0.0933,0.0991,0.0989,0.1096,0.111,0.1145,0.1275,0.1282,0.1206,0.1211,0.1215,0.1217,0,0,0,0,0,0,0,0.0615,0.0637,0.0848,0.0818,0.0826,0.0836,0.0855,0.0942,0.1022,0.0938,0.0941,0.0961,0.1099,0.1137,0.115,0.1285,0.1206,0.1213,0.1219,0.1222,0.1497,0.1499,0,0,0,0,0,0,0.0598,0.0629,0.0842,0.0853,0.072,0.0843,0.0863,0.0912,0.1021,0.1036,0.0962,0.0962,0.1123,0.114,0.1156,0.1268,0.1215,0.1223,0.1228,0.1495,0.1498,0.15,0,0,0,0,0,0,0.0591,0.0616,0.0835,0.0742,0.077,0.085,0.0904,0.0917,0.0955,0.1039,0.1054,0.0987,0.1122,0.1144,0.124,0.1275,0.1227,0.1235,0.1493,0.1496,0.1499,0.1491,0,0,0,0,0,0,0.0583,0.0614,0.0648,0.0742,0.0775,0.0915,0.0906,0.0921,0.097,0.0971,0.1066,0.108,0.1123,0.1226,0.1248,0.1286,0.1241,0.149,0.1494,0.1498,0.1489,0.1494,0.1498,0,0,0,0,0,0.0572,0.0638,0.0649,0.0675,0.0819,0.0917,0.0936,0.0984,0.0972,0.1008,0.1062,0.1077,0.1267,0.1236,0.126,0.1301,0.1488,0.1493,0.1498,0.1486,0.1493,0.1498,0,0,0,0,0,0,0.0545,0.0651,0.0665,0.0763,0.0831,0.0924,0.097,0.0989,0.1061,0.106,0.1116,0.1137,0.1229,0.1274,0.1238,0.1393,0.1377,0.1387,0.136,0.1367,0.1371,0.1359,0.1248,0,0,0,0,0,0.0551,0.0621,0.071,0.0788,0.0822,0.089,0.0934,0.0965,0.1038,0.1067,0.1128,0.1198,0.1274,0.1322,0.1396,0.1495,0.1517,0.1535,0.1539,0.1543,0.1551,0.1609,0.1619,0.1516,0.1516,0.1516,0,0,0.0563,0.0629,0.067,0.0785,0.0841,0.0914,0.0914,0.099,0.1045,0.1078,0.1173,0.122,0.1302,0.14,0.1446,0.1441,0.1585,0.1549,0.1551,0.1558,0.1615,0.1625,0.1633,0.1519,0.1519,0.1518,0,0,0.0622,0.0679,0.0752,0.0808,0.0894,0.0939,0.0956,0.1047,0.108,0.1175,0.1203,0.1268,0.1397,0.1455,0.1501,0.1584,0.1602,0.1606,0.1632,0.1687,0.1695,0.1703,0.1734,0.1745,0.1614,0.1614,0.1614,0,0.0627,0.0737,0.0786,0.0862,0.0913,0.0946,0.1021,0.1073,0.1178,0.1213,0.1205,0.1368,0.1425,0.1538,0.1559,0.1594,0.1617,0.1597,0.169,0.1698,0.1706,0.1737,0.1748,0.1614,0.1614,0.1614,0.1614,0,0.0739,0.0816,0.0864,0.0966,0.1021,0.1096,0.1157,0.1207,0.1233,0.1279,0.1377,0.1447,0.1537,0.1565,0.1591,0.1683,0.1677,0.1679,0.1664,0.1715,0.1745,0.1757,0.1615,0.1615,0.1615,0.1615,0,0,0.0787,0.0916,0.0933,0.098,0.1078,0.1138,0.1214,0.1303,0.1346,0.1417,0.1484,0.1592,0.1595,0.1647,0.168,0.1728,0.1792,0.1725,0.1728,0.1737,0.19,0.19,0.1912,0.1804,0.1806,0.1808,0.1894,0,0.086,0.0999,0.1046,0.1161,0.1233,0.1267,0.1334,0.1401,0.1446,0.1515,0.1564,0.1641,0.1638,0.167,0.1719,0.1774,0.1826,0.1768,0.1868,0.1871,0.1849,0.1928,0.1927,0.2005,0.1906,0.1908,0.1909,0,0.0965,0.1039,0.1161,0.1251,0.1283,0.1343,0.1429,0.1493,0.157,0.16,0.1659,0.1688,0.1771,0.175,0.1865,0.1825,0.1868,0.1901,0.1906,0.1918,0.1894,0.1945,0.203,0.2043,0.1928,0.1926,0.1925,0,0.099,0.112,0.1211,0.125,0.1357,0.1398,0.1444,0.152,0.1571,0.1645,0.1679,0.1762,0.1808,0.1871,0.1923,0.1903,0.2034,0.2018,0.2063,0.2061,0.209,0.2088,0.2186,0.2114,0.2114,0.2114,0.2114,0,0.1068,0.1142,0.1224,0.128,0.1365,0.1418,0.15,0.1548,0.1616,0.1682,0.1715,0.1777,0.184,0.1911,0.1951,0.2042,0.2062,0.2089,0.2099,0.2087,0.2084,0.2118,0.2115,0.2117,0.2116,0.2116,0.2115,0,0.1111,0.1169,0.127,0.1363,0.1389,0.1447,0.1527,0.1583,0.1629,0.1713,0.1736,0.1809,0.1894,0.1951,0.2059,0.2087,0.2186,0.2194,0.216,0.2165,0.2208,0.2204,0.2333,0.2354,0.2265,0.2266,0.2267,0,0.1158,0.1216,0.1316,0.1363,0.141,0.1485,0.1538,0.1592,0.1645,0.1739,0.1784,0.1871,0.1944,0.2078,0.2141,0.2224,0.2236,0.2275,0.2248,0.2235,0.2239,0.2236,0.2243,0.228,0.2281,0.2281,0.2282,0,0.1236,0.1262,0.1336,0.1421,0.1483,0.1552,0.1621,0.1658,0.1725,0.1783,0.1871,0.1927,0.2038,0.2125,0.2214,0.2262,0.2284,0.2289,0.2305,0.2294,0.2273,0.2288,0.2174,0.2287,0.2286,0.2286,0.2285,0.2285,0.1285,0.1339,0.1418,0.15,0.1558,0.1623,0.1681,0.1735,0.1809,0.1904,0.1932,0.2023,0.21,0.2223,0.2273,0.2345,0.2342,0.2363,0.2369,0.2374,0.2376,0.226,0.2361,0.2361,0.2361,0.2361,0.2361,0,0.1367,0.1419,0.1494,0.1591,0.1656,0.167,0.1748,0.1802,0.1882,0.1952,0.2024,0.2125,0.2209,0.2279,0.2367,0.2412,0.2424,0.2433,0.2431,0.2443,0.2373,0.2352,0.2422,0.2422,0.2422,0.2422,0.2422,0.2422,0.1417,0.151,0.1546,0.1668,0.1721,0.1811,0.1855,0.1915,0.1972,0.2084,0.2154,0.2199,0.227,0.2363,0.2442,0.246,0.2492,0.2499,0.252,0.2454,0.2447,0.2441,0.2422,0.2505,0.2505,0.2584,0.2585,0.2586]}]]